When you browse on this site, cookies collect data to enhance your experience and personalize the content and advertising you see.
Visit our Privacy Policy to learn more. By continuing to use the site, you agree to this use of cookies and data.
  • In Hungary
  • List of Countries
  • For 7 days
  • Water Temperature
  • Satellite Maps
  • Weather Map
  • News
  • Weather Widgets
  • user-avatar
    Login

    Hourly Weather Vitryanka

    Today, 20 July, Saturday

    Time Temperature Precipitation Wind Pressure Humidity
    00:00 +21°C° 0 mm 1 mps 757 mmHg 66%
    01:00 +21°C° 0 mm 1 mps 757 mmHg 68%
    02:00 +21°C° 0 mm 1 mps 757 mmHg 70%
    03:00 +21°C° 0 mm 1 mps 757 mmHg 69%
    04:00 +21°C° 0 mm 1 mps 757 mmHg 68%
    05:00 +19°C° 0 mm 0 mps 757 mmHg 67%
    06:00 +21°C° 0 mm 0 mps 757 mmHg 56%
    07:00 +24°C° 0 mm 0 mps 757 mmHg 45%
    08:00 +29°C° 0 mm 1 mps 758 mmHg 34%
    09:00 +30°C° 0 mm 1 mps 758 mmHg 31%
    10:00 +31°C° 0 mm 2 mps 758 mmHg 28%
    11:00 +32°C° 0 mm 2 mps 758 mmHg 25%
    12:00 +33°C° 0 mm 3 mps 758 mmHg 25%
    13:00 +33°C° 0 mm 4 mps 758 mmHg 25%
    14:00 +33°C° 0 mm 4 mps 757 mmHg 25%
    15:00 +33°C° 0 mm 4 mps 757 mmHg 27%
    16:00 +33°C° 0 mm 4 mps 757 mmHg 28%
    17:00 +32°C° 0 mm 4 mps 757 mmHg 29%
    18:00 +29°C° 0 mm 3 mps 757 mmHg 35%
    19:00 +28°C° 0 mm 3 mps 757 mmHg 41%
    20:00 +26°C° 0 mm 2 mps 757 mmHg 47%
    21:00 +25°C° 0 mm 2 mps 757 mmHg 49%
    22:00 +24°C° 0 mm 1 mps 757 mmHg 51%
    23:00 +24°C° 0 mm 1 mps 757 mmHg 53%

    Tomorrow, 21 July, Sunday

    Time Temperature Precipitation Wind Pressure Humidity
    00:00 +23°C° 0 mm 1 mps 757 mmHg 54%
    01:00 +21°C° 0 mm 0 mps 757 mmHg 54%
    02:00 +20°C° 0 mm 0 mps 757 mmHg 55%
    03:00 +23°C° 0 mm 1 mps 757 mmHg 54%
    04:00 +23°C° 0 mm 1 mps 757 mmHg 54%
    05:00 +23°C° 0 mm 1 mps 757 mmHg 54%
    06:00 +25°C° 0 mm 2 mps 757 mmHg 47%
    07:00 +27°C° 0 mm 2 mps 757 mmHg 40%
    08:00 +30°C° 0 mm 3 mps 757 mmHg 33%
    09:00 +31°C° 0 mm 3 mps 757 mmHg 30%
    10:00 +33°C° 0 mm 4 mps 757 mmHg 27%
    11:00 +34°C° 0 mm 5 mps 757 mmHg 24%
    12:00 +34°C° 0 mm 5 mps 757 mmHg 23%
    13:00 +35°C° 0 mm 5 mps 756 mmHg 22%
    14:00 +35°C° 0 mm 5 mps 756 mmHg 21%
    15:00 +34°C° 0 mm 5 mps 756 mmHg 24%
    16:00 +34°C° 0 mm 5 mps 756 mmHg 26%
    17:00 +33°C° 0 mm 6 mps 756 mmHg 28%
    18:00 +30°C° 0 mm 5 mps 756 mmHg 36%
    19:00 +27°C° 0 mm 4 mps 756 mmHg 43%
    20:00 +25°C° 0 mm 2 mps 756 mmHg 50%
    21:00 +25°C° 0 mm 2 mps 756 mmHg 52%
    22:00 +24°C° 0 mm 2 mps 756 mmHg 54%
    23:00 +24°C° 0 mm 1 mps 757 mmHg 56%

    Day after tomorrow, 22 July, Monday

    Time Temperature Precipitation Wind Pressure Humidity
    00:00 +23°C° 0 mm 1 mps 757 mmHg 57%
    01:00 +23°C° 0 mm 2 mps 756 mmHg 58%
    02:00 +23°C° 0 mm 2 mps 756 mmHg 59%
    03:00 +23°C° 0 mm 1 mps 756 mmHg 59%
    04:00 +23°C° 0 mm 1 mps 756 mmHg 59%
    05:00 +22°C° 0 mm 1 mps 756 mmHg 59%
    06:00 +25°C° 0 mm 1 mps 756 mmHg 51%
    07:00 +28°C° 0 mm 1 mps 756 mmHg 43%
    08:00 +30°C° 0 mm 1 mps 756 mmHg 34%
    09:00 +31°C° 0 mm 1 mps 756 mmHg 31%
    10:00 +34°C° 0 mm 2 mps 756 mmHg 29%
    11:00 +35°C° 0 mm 3 mps 756 mmHg 26%
    12:00 +35°C° 0 mm 4 mps 756 mmHg 26%
    13:00 +35°C° 0 mm 4 mps 756 mmHg 26%
    14:00 +35°C° 0 mm 4 mps 756 mmHg 27%
    15:00 +34°C° 0 mm 4 mps 756 mmHg 29%
    16:00 +33°C° 0 mm 5 mps 755 mmHg 31%
    17:00 +32°C° 0 mm 5 mps 755 mmHg 33%
    18:00 +29°C° 0 mm 4 mps 755 mmHg 40%
    19:00 +27°C° 0 mm 3 mps 755 mmHg 47%
    20:00 +25°C° 0 mm 2 mps 755 mmHg 54%
    21:00 +24°C° 0 mm 2 mps 755 mmHg 58%
    22:00 +24°C° 0 mm 2 mps 755 mmHg 62%
    23:00 +23°C° 0 mm 2 mps 755 mmHg 65%

    23 July, Tuesday

    Time Temperature Precipitation Wind Pressure Humidity
    00:00 +23°C° 0 mm 2 mps 754 mmHg 71%
    01:00 +23°C° 0 mm 1 mps 754 mmHg 76%
    02:00 +22°C° 0 mm 1 mps 754 mmHg 81%
    03:00 +22°C° 0 mm 1 mps 754 mmHg 81%
    04:00 +22°C° 0 mm 1 mps 753 mmHg 81%
    05:00 +22°C° 0 mm 1 mps 753 mmHg 80%
    06:00 +23°C° 0 mm 2 mps 753 mmHg 75%
    07:00 +25°C° 0 mm 3 mps 753 mmHg 70%
    08:00 +26°C° 0 mm 3 mps 753 mmHg 65%
    09:00 +26°C° 0.1 mm 3 mps 753 mmHg 66%
    10:00 +25°C° 0.1 mm 3 mps 753 mmHg 68%
    11:00 +25°C° 0.1 mm 3 mps 753 mmHg 69%
    12:00 +26°C° 0.1 mm 3 mps 753 mmHg 62%
    13:00 +27°C° 0.1 mm 3 mps 753 mmHg 56%
    14:00 +29°C° 0.1 mm 3 mps 753 mmHg 49%
    15:00 +28°C° 0.3 mm 3 mps 752 mmHg 52%
    16:00 +27°C° 0.3 mm 2 mps 752 mmHg 55%
    17:00 +27°C° 0.3 mm 2 mps 752 mmHg 58%
    18:00 +26°C° 0.4 mm 2 mps 752 mmHg 63%
    19:00 +25°C° 0.4 mm 1 mps 752 mmHg 69%
    20:00 +23°C° 0.4 mm 1 mps 752 mmHg 74%
    21:00 +23°C° 0.1 mm 1 mps 752 mmHg 75%
    22:00 +23°C° 0.1 mm 1 mps 752 mmHg 76%
    23:00 +23°C° 0.1 mm 1 mps 752 mmHg 76%

    24 July, Wednesday

    Time Temperature Precipitation Wind Pressure Humidity
    00:00 +23°C° 0.5 mm 1 mps 752 mmHg 78%
    01:00 +22°C° 0.5 mm 1 mps 752 mmHg 80%
    02:00 +22°C° 0.5 mm 1 mps 752 mmHg 81%
    03:00 +22°C° 0.8 mm 1 mps 752 mmHg 83%
    04:00 +21°C° 0.8 mm 1 mps 752 mmHg 84%
    05:00 +21°C° 0.8 mm 1 mps 751 mmHg 86%
    06:00 +23°C° 0 mm 1 mps 752 mmHg 79%
    07:00 +24°C° 0 mm 2 mps 752 mmHg 71%
    08:00 +25°C° 0 mm 2 mps 752 mmHg 64%
    09:00 +27°C° 0.1 mm 3 mps 752 mmHg 59%
    10:00 +28°C° 0.1 mm 3 mps 752 mmHg 53%
    11:00 +29°C° 0.1 mm 4 mps 752 mmHg 48%
    12:00 +29°C° 0.3 mm 4 mps 752 mmHg 47%
    13:00 +29°C° 0.3 mm 4 mps 752 mmHg 45%
    14:00 +30°C° 0.3 mm 4 mps 752 mmHg 43%
    15:00 +29°C° 0.1 mm 3 mps 752 mmHg 45%
    16:00 +29°C° 0.1 mm 3 mps 751 mmHg 46%
    17:00 +28°C° 0.1 mm 3 mps 751 mmHg 47%
    18:00 +27°C° 0.1 mm 2 mps 751 mmHg 53%
    19:00 +25°C° 0.1 mm 2 mps 751 mmHg 59%
    20:00 +24°C° 0.1 mm 2 mps 751 mmHg 64%
    21:00 +24°C° 0.1 mm 2 mps 751 mmHg 67%
    22:00 +23°C° 0.1 mm 2 mps 751 mmHg 70%
    23:00 +23°C° 0.1 mm 2 mps 751 mmHg 73%

    25 July, Thursday

    Time Temperature Precipitation Wind Pressure Humidity
    00:00 +23°C° 0 mm 2 mps 751 mmHg 75%
    01:00 +21°C° 0 mm 3 mps 751 mmHg 77%
    02:00 +21°C° 0 mm 3 mps 751 mmHg 79%
    03:00 +21°C° 0.1 mm 3 mps 751 mmHg 80%
    04:00 +21°C° 0.1 mm 3 mps 751 mmHg 82%
    05:00 +20°C° 0.1 mm 3 mps 751 mmHg 83%
    06:00 +21°C° 0.6 mm 3 mps 751 mmHg 78%
    07:00 +22°C° 0.6 mm 3 mps 751 mmHg 74%
    08:00 +24°C° 0.6 mm 3 mps 751 mmHg 69%
    09:00 +24°C° 0.6 mm 3 mps 751 mmHg 70%
    10:00 +22°C° 0.6 mm 3 mps 751 mmHg 71%
    11:00 +23°C° 0.6 mm 2 mps 751 mmHg 72%
    12:00 +23°C° 0.1 mm 2 mps 751 mmHg 72%
    13:00 +23°C° 0.1 mm 2 mps 751 mmHg 73%
    14:00 +23°C° 0.1 mm 2 mps 751 mmHg 73%
    15:00 +24°C° 0.5 mm 3 mps 751 mmHg 69%
    16:00 +25°C° 0.5 mm 3 mps 751 mmHg 65%
    17:00 +25°C° 0.5 mm 4 mps 751 mmHg 62%
    18:00 +25°C° 0.3 mm 4 mps 751 mmHg 66%
    19:00 +24°C° 0.3 mm 3 mps 751 mmHg 70%
    20:00 +23°C° 0.3 mm 2 mps 751 mmHg 75%
    21:00 +21°C° 0 mm 2 mps 750 mmHg 76%
    22:00 +21°C° 0 mm 2 mps 750 mmHg 78%
    23:00 +20°C° 0 mm 2 mps 750 mmHg 79%
    Show more